Weather Roundup
Issued by NWS

Home | Current Version | Previous Version | Text Only | Print | Product List | Glossary On
Versions: 1 2 3 4 5 6 7 8 9 10 11 12 13 14 15 16 17 18 19 20 21 22 23 24 25 26 27 28 29 30 31 32 33 34 35 36 37 38 39 40 41 42 43 44 45 46 47 48 49 50
000
NZUS93 KARX 152210
HRRWXR

CURRENT HOURLY OBSERVATIONS ACROSS
MUCH OF THE UPPER MISSISSIPPI VALLEY
NATIONAL WEATHER SERVICE LA CROSSE WI
500 PM CDT TUE APR 15 2014


...SOUTHEAST MINNESOTA...


CITY           SKY/WX    TMP DP  RH WIND       PRES   REMARKS
ROCHESTER      SUNNY     34  16  47 S7        30.06F WCI  28
ROCHESTER/MAYO FAIR      36   8  32 W6        30.06F WCI  31
WINONA         SUNNY     36  12  38 SW5       30.09F WCI  32
AUSTIN         SUNNY     34  10  37 CALM      30.06S
ALBERT LEA     PTSUNNY   36  10  35 S6        30.05S WCI  31
DODGE CENTER   SUNNY     37   7  28 SW7       30.05S WCI  32
PRESTON        SUNNY     34  14  44 S5        30.07F WCI  30
OWATONNA       SUNNY     36   9  32 S9        30.05F WCI  29
FARIBAULT      MOSUNNY   39   1  20 SE3       30.06S
$$

...ELSEWHERE IN MINNESOTA...


CITY           SKY/WX    TMP DP  RH WIND       PRES   REMARKS
MINNEAPOLIS    MOSUNNY   36   2  23 CALM      30.06F
INTNL FALLS    SUNNY     28   1  31 N6        30.03S WCI  22
DULUTH         SUNNY     30   2  30 NW9G17    30.01S WCI  22
RED WING       MOSUNNY   37   5  25 NW7       30.07R WCI  32
REDWOOD FALLS  PTSUNNY   39  10  30 SE13      30.01F WCI  31
MANKATO        PTSUNNY   36   1  23 CALM      30.05F
WORTHINGTON    SUNNY     41  14  33 S14G23    29.98S
FAIRMONT       SUNNY     37  10  32 SW10      30.04F WCI  30
$$

...SOUTHWEST WISCONSIN...


CITY           SKY/WX    TMP DP  RH WIND       PRES   REMARKS
LA CROSSE      SUNNY     38  10  31 NW6       30.09F WCI  33
PRAIRIE DU CHI SUNNY     38  13  35 W12       30.11F WCI  30
BOSCOBEL       SUNNY     38  11  32 SW5       30.11S WCI  34
LONE ROCK      MOSUNNY   37  15  40 SW9       30.11S WCI  30
PLATTEVILLE    SUNNY     37  18  45 W7        30.11S WCI  32
FORT MC COY    MOSUNNY   35  10  34 SW9       30.10S WCI  28
CAMP DOUGLAS   PTSUNNY   34  12  40 NW5       30.09F WCI  30
VIROQUA        FAIR      33  12  41 CALM      30.07S
WIS DELLS      MOSUNNY   33  15  48 W6        30.09F WCI  27
$$

...ELSEWHERE IN WISCONSIN...


CITY           SKY/WX    TMP DP  RH WIND       PRES   REMARKS
MILWAUKEE      PTSUNNY   32  18  56 SE14      30.13S WCI  22
MADISON        PTSUNNY   36  15  42 W5        30.12R WCI  32
GREEN BAY      MOSUNNY   32  18  56 W13       30.09S WCI  22
EAU CLAIRE     SUNNY     36   5  27 W6        30.06F WCI  31
BLACK RVR FLS  FAIR      35  10  34 W7        30.08S WCI  30
MEDFORD        PTSUNNY   29  11  46 W9        30.03S WCI  21
WAUSAU         MOSUNNY   29  10  45 W8        30.04S WCI  21
WIS RAPIDS     PTSUNNY   31  10  41 VRB7      30.09S WCI  24
MARSHFIELD     MOSUNNY   31  11  43 W8        30.05F WCI  23
RICE LAKE      NOT AVBL
$$

...NORTHEAST IOWA...


CITY           SKY/WX    TMP DP  RH WIND       PRES   REMARKS
WATERLOO       SUNNY     37  14  38 SW8       30.10F WCI  31
DUBUQUE        MOSUNNY   36  15  42 W7        30.11R WCI  30
DECORAH        SUNNY     34  14  44 NW9       30.08F WCI  26
MASON CITY     SUNNY     37  14  38 VRB6      30.07F WCI  32
CHARLES CITY   SUNNY     36  14  41 VRB7G13   30.08F WCI  30
OELWEIN        SUNNY    N/A N/A N/A SW8       30.10F
$$

...ELSEWHERE IN IOWA...


CITY           SKY/WX    TMP DP  RH WIND       PRES   REMARKS
DES MOINES     MOSUNNY   45  18  34 S10       30.09F
IOWA CITY      SUNNY     40  11  30 SW9       30.15S WCI  34
FORT DODGE     MOSUNNY   41  23  48 S10G21    30.06F
MARSHALLTOWN   SUNNY     37  15  40 SW5       30.09F WCI  33
CEDAR RAPIDS   SUNNY     40  13  33 W8        30.11F WCI  34
$$

...NORTHERN ILLINOIS...


CITY           SKY/WX    TMP DP  RH WIND       PRES   REMARKS
CHICAGO-OHARE  PTSUNNY   36  16  44 NW9       30.13F WCI  29
DUPAGE         CLOUDY    36  18  48 W13       30.13S WCI  27
CHICAGO-MIDWAY PTSUNNY   35  17  47 E5        30.14F WCI  31
MOLINE         SUNNY     42  10  27 W13       30.13F
ROCKFORD       PTSUNNY   40  15  36 W9        30.14S WCI  34
STERLING       PTSUNNY   43  18  36 W10       30.13S
PEORIA         MOSUNNY   43  16  33 VRB6      30.15F
$$

NOTE: "FAIR" INDICATES FEW OR NO CLOUDS BELOW 12,000 FEET WITH NO
SIGNIFICANT WEATHER AND/OR OBSTRUCTIONS TO VISIBILITY. WIND
SPEEDS ARE IN MILES-PER-HOUR.



USA.gov is the U.S. government's official web portal to all federal, state and local government web resources and services.